QPF
0.00 0.00 0.00 0.00 0.00 0.00 0.00 0.00 0.00 0.00 0.00 0.00 0.00 0.00 0.00 0.00 0.00 0.00 0.00 0.00 0.00 0.00 0.00 0.00 0.00 0.00 0.00 0.00 0.00 0.00 0.01 0.36 0.45 0.04 0.00 0.00 0.00 0.00 0.00 0.00 0.00 0.00 0.00 0.00 0.00
0.00 0.00 0.00 0.00 0.00 0.00 0.00 0.00 0.00 0.00 0.00 0.00 0.00 0.00 0.00 0.00 0.00 0.00 0.00 0.00 0.00 0.00 0.00 0.00 0.00 0.00 0.00 0.00 0.00 0.00 0.00 0.08 0.15 0.07 0.14 0.00 0.00 0.00 0.00 0.00 0.00 0.00 0.00 0.00 0.00
0.00 0.00 0.00 0.00 0.00 0.00 0.00 0.00 0.00 0.00 0.00 0.00 0.00 0.00 0.00 0.00 0.00 0.00 0.00 0.00 0.00 0.00 0.00 0.00 0.00 0.00 0.00 0.00 0.00 0.00 0.00 0.00 0.00 0.01 0.01 0.00 0.00 0.00 0.00 0.00 0.00 0.08 0.01 0.00 0.00
0.00 0.00 0.00 0.00 0.00 0.00 0.00 0.00 0.00 0.00 0.00 0.00 0.00 0.00 0.00 0.00 0.00 0.00 0.00 0.00 0.00 0.00 0.00 0.00 0.00 0.00 0.00 0.00 0.00 0.00 0.00 0.00 0.00 0.00 0.00 0.00 0.00 0.00 0.00 0.00 0.00 0.07 0.03 0.00 0.00
0.00 0.00 0.00 0.00 0.00 0.00 0.00 0.00 0.00 0.00 0.00 0.00 0.00 0.00 0.00 0.00 0.00 0.00 0.00 0.00 0.00 0.00 0.00 0.00 0.00 0.00 0.00 0.00 0.00 0.00 0.00 0.00 0.00 0.00 0.00 0.00 0.00 0.00 0.00 0.00 0.00 0.00 0.00 0.00 0.00
0.00 0.00 0.00 0.00 0.00 0.00 0.00 0.00 0.00 0.00 0.00 0.00 0.00 0.00 0.00 0.00 0.00 0.00 0.00 0.00 0.00 0.00 0.00 0.00 0.00 0.00 0.00 0.00 0.00 0.00 0.00 0.00 0.00 0.00 0.00 0.00 0.00 0.00 0.00 0.00 0.00 0.00 0.00 0.00 0.00
0.00 0.00 0.00 0.00 0.00 0.00 0.00 0.00 0.00 0.00 0.00 0.00 0.00 0.00 0.00 0.00 0.00 0.00 0.00 0.00 0.00 0.00 0.00 0.00 0.00 0.00 0.00 0.00 0.00 0.00 0.00 0.00 0.00 0.00 0.00 0.00 0.00 0.00 0.00 0.00 0.00 0.00 0.00 0.00 0.00
0.00 0.00 0.00 0.00 0.00 0.00 0.00 0.00 0.00 0.00 0.00 0.00 0.00 0.00 0.00 0.00 0.00 0.00 0.00 0.00 0.00 0.00 0.00 0.00 0.00 0.00 0.00 0.00 0.00 0.00 0.00 0.00 0.00 0.00 0.00 0.00 0.00 0.00 0.00 0.00 0.00 0.00 0.00 0.00 0.00
0.00 0.00 0.00 0.00 0.00 0.00 0.00 0.00 0.00 0.00 0.00 0.00 0.00 0.00 0.00 0.00 0.00 0.00 0.00 0.00 0.00 0.00 0.00 0.00 0.00 0.00 0.00 0.00 0.00 0.00 0.00 0.00 0.00 0.00 0.00 0.00 0.00 0.00 0.00 0.00 0.00 0.00 0.00 0.00 0.00
0.00 0.00 0.00 0.00 0.00 0.00 0.00 0.00 0.00 0.00 0.00 0.00 0.00 0.00 0.00 0.00 0.00 0.00 0.00 0.00 0.00 0.00 0.00 0.00 0.00 0.00 0.00 0.00 0.00 0.00 0.00 0.00 0.00 0.00 0.00 0.00 0.00 0.00 0.00 0.00 0.00 0.00 0.00 0.00 0.00
0.00 0.00 0.00 0.00 0.00 0.00 0.00 0.00 0.00 0.00 0.00 0.00 0.00 0.00 0.00 0.00 0.00 0.00 0.00 0.00 0.00 0.00 0.00 0.00 0.00 0.00 0.00 0.00 0.00 0.00 0.00 0.00 0.00 0.00 0.00 0.00 0.00 0.00 0.00 0.00 0.00 0.00 0.00 0.00 0.00
0.00 0.00 0.00 0.00 0.00 0.00 0.00 0.00 0.00 0.00 0.00 0.00 0.00 0.00 0.00 0.00 0.00 0.00 0.00 0.00 0.00 0.00 0.00 0.00 0.00 0.00 0.00 0.00 0.00 0.00 0.00 0.00 0.00 0.00 0.00 0.00 0.00 0.00 0.00 0.00 0.00 0.00 0.00 0.00 0.00
0.00 0.00 0.00 0.00 0.00 0.00 0.00 0.00 0.00 0.00 0.00 0.00 0.00 0.00 0.00 0.00 0.00 0.00 0.00 0.00 0.00 0.00 0.00 0.00 0.00 0.00 0.00 0.00 0.00 0.00 0.00 0.00 0.00 0.00 0.00 0.00 0.00 0.00 0.00 0.00 0.00 0.00 0.00 0.00 0.00
0.00 0.00 0.00 0.00 0.00 0.00 0.00 0.00 0.00 0.00 0.00 0.00 0.00 0.00 0.00 0.00 0.00 0.00 0.00 0.00 0.00 0.00 0.00 0.00 0.00 0.00 0.00 0.00 0.00 0.00 0.00 0.00 0.00 0.00 0.00 0.00 0.00 0.00 0.00 0.00 0.00 0.00 0.00 0.00 0.00
0.00 0.00 0.00 0.00 0.00 0.00 0.00 0.00 0.00 0.00 0.00 0.00 0.00 0.00 0.00 0.00 0.00 0.00 0.00 0.00 0.00 0.00 0.00 0.00 0.00 0.00 0.00 0.00 0.00 0.00 0.00 0.00 0.00 0.00 0.00 0.00 0.00 0.00 0.00 0.00 0.00 0.00 0.00 0.00 0.00
0.00 0.00 0.00 0.00 0.00 0.00 0.00 0.00 0.00 0.00 0.00 0.00 0.00 0.00 0.00 0.00 0.00 0.00 0.00 0.00 0.00 0.00 0.00 0.00 0.00 0.00 0.00 0.00 0.00 0.00 0.00 0.00 0.00 0.00 0.00 0.00 0.00 0.00 0.00 0.00 0.00 0.00 0.00 0.00 0.00
0.00 0.00 0.00 0.00 0.00 0.00 0.00 0.00 0.00 0.00 0.00 0.00 0.00 0.00 0.00 0.00 0.00 0.00 0.00 0.00 0.00 0.00 0.00 0.00 0.00 0.00 0.00 0.00 0.00 0.00 0.00 0.00 0.00 0.00 0.00 0.00 0.00 0.00 0.00 0.00 0.00 0.00 0.00 0.00 0.00
0.00 0.00 0.00 0.00 0.00 0.00 0.00 0.00 0.00 0.00 0.00 0.00 0.00 0.00 0.00 0.00 0.00 0.00 0.00 0.00 0.00 0.00 0.00 0.00 0.00 0.00 0.00 0.00 0.00 0.00 0.00 0.00 0.00 0.00 0.00 0.00 0.00 0.00 0.00 0.00 0.00 0.00 0.00 0.00 0.00
0.00 0.00 0.00 0.00 0.00 0.00 0.00 0.00 0.00 0.00 0.00 0.00 0.00 0.00 0.00 0.00 0.00 0.00 0.00 0.00 0.00 0.00 0.00 0.00 0.00 0.00 0.00 0.00 0.00 0.00 0.00 0.00 0.00 0.00 0.00 0.00 0.00 0.00 0.00 0.00 0.00 0.00 0.00 0.00 0.00
0.00 0.00 0.00 0.00 0.00 0.00 0.00 0.00 0.00 0.00 0.00 0.00 0.00 0.00 0.00 0.00 0.00 0.00 0.00 0.00 0.00 0.00 0.00 0.00 0.00 0.00 0.00 0.00 0.00 0.00 0.00 0.00 0.00 0.00 0.00 0.00 0.00 0.00 0.00 0.00 0.00 0.00 0.00 0.06 0.14
0.00 0.00 0.00 0.00 0.00 0.00 0.00 0.00 0.00 0.00 0.00 0.00 0.00 0.00 0.00 0.00 0.00 0.00 0.00 0.00 0.00 0.00 0.00 0.00 0.00 0.00 0.00 0.00 0.00 0.00 0.00 0.00 0.00 0.00 0.00 0.00 0.00 0.00 0.00 0.00 0.00 0.03 0.14 0.68 0.71
0.00 0.00 0.00 0.00 0.00 0.00 0.00 0.00 0.00 0.00 0.00 0.00 0.00 0.00 0.00 0.00 0.00 0.00 0.00 0.00 0.00 0.00 0.00 0.00 0.00 0.00 0.00 0.00 0.00 0.00 0.00 0.00 0.00 0.00 0.00 0.01 0.00 0.00 0.00 0.00 0.05 0.11 0.92 0.82 0.14
0.00 0.00 0.00 0.00 0.00 0.00 0.00 0.00 0.00 0.00 0.00 0.00 0.00 0.00 0.00 0.00 0.00 0.00 0.00 0.00 0.00 0.00 0.00 0.00 0.00 0.00 0.00 0.00 0.00 0.00 0.00 0.01 0.00 0.00 0.01 0.01 0.01 0.00 0.00 0.11 0.17 0.08 0.11 0.29 0.28
0.00 0.00 0.00 0.00 0.00 0.00 0.00 0.00 0.00 0.00 0.00 0.00 0.00 0.00 0.00 0.00 0.00 0.00 0.00 0.00 0.00 0.00 0.00 0.00 0.00 0.00 0.00 0.00 0.00 0.00 0.00 0.00 0.00 0.00 0.01 0.01 0.01 0.04 0.02 0.02 0.07 0.03 0.07 0.19 0.21
0.00 0.00 0.00 0.00 0.00 0.00 0.00 0.00 0.00 0.00 0.00 0.00 0.00 0.00 0.00 0.00 0.00 0.00 0.00 0.00 0.00 0.00 0.00 0.00 0.00 0.00 0.00 0.00 0.00 0.00 0.00 0.00 0.00 0.00 0.00 0.00 0.01 0.08 0.53 0.40 0.26 0.33 0.31 0.27 0.10
0.00 0.00 0.00 0.00 0.00 0.00 0.00 0.00 0.00 0.00 0.00 0.00 0.00 0.00 0.00 0.00 0.00 0.00 0.00 0.00 0.00 0.00 0.00 0.00 0.00 0.00 0.00 0.00 0.00 0.00 0.00 0.00 0.00 0.00 0.00 0.00 0.07 0.25 0.43 0.26 0.27 0.31 0.37 0.20 0.09
0.00 0.00 0.00 0.00 0.00 0.00 0.00 0.00 0.00 0.00 0.00 0.00 0.00 0.00 0.00 0.00 0.00 0.00 0.00 0.00 0.00 0.00 0.00 0.00 0.00 0.00 0.00 0.00 0.00 0.00 0.00 0.00 0.00 0.00 0.02 0.03 0.04 0.21 0.09 0.05 0.03 0.02 0.11 0.16 0.01
MSLP
1017.13 1016.73 1016.31 1015.84 1015.35 1014.91 1014.43 1013.90 1013.37 1012.90 1012.48 1012.07 1011.67 1011.25 1010.79 1010.52 1009.99 1009.29 1006.77 1004.56 1004.68 1005.10 1005.38 1004.74 1004.47 1003.51 1002.50 1002.07 1001.34 1000.89 1001.48 1005.67 1006.43 1003.17 1000.82 997.03 995.02 994.46 994.44 995.27 996.29 997.46 998.37 999.66 1000.94
1017.22 1016.74 1016.22 1015.73 1015.22 1014.77 1014.31 1013.74 1013.20 1012.71 1012.27 1011.85 1011.42 1010.99 1010.69 1010.44 1009.06 1006.65 1004.31 1004.00 1004.30 1004.76 1004.86 1003.86 1003.35 1002.71 1001.88 1001.05 1000.27 999.90 999.91 1002.77 1002.35 1005.07 1002.69 996.92 995.28 994.75 994.21 994.93 996.41 997.87 998.95 1000.15 1000.54
1017.25 1016.76 1016.20 1015.65 1015.10 1014.56 1014.01 1013.44 1012.88 1012.41 1011.97 1011.56 1011.19 1010.77 1010.48 1010.27 1007.76 1003.66 1004.17 1004.25 1004.41 1004.50 1003.82 1002.82 1002.20 1001.86 1001.30 1000.39 999.46 998.78 998.66 998.68 1000.77 1001.13 997.55 995.97 995.35 994.77 994.53 994.90 996.71 1000.96 1001.01 1000.75 1000.92
1017.25 1016.67 1016.10 1015.51 1014.88 1014.29 1013.70 1013.12 1012.55 1012.06 1011.66 1011.26 1010.92 1010.56 1010.27 1009.29 1005.76 1003.91 1004.36 1004.49 1004.60 1004.28 1003.88 1002.41 1001.91 1001.24 1000.68 1000.01 998.95 998.07 997.92 997.97 997.74 997.41 996.96 995.97 995.32 994.72 994.80 994.69 996.48 997.86 1000.63 1000.28 1000.77
1017.09 1016.51 1015.90 1015.28 1014.58 1013.89 1013.25 1012.68 1012.16 1011.60 1011.14 1010.82 1010.59 1010.37 1009.74 1007.39 1003.93 1003.89 1004.36 1004.60 1004.51 1004.35 1003.36 1002.09 1001.59 1001.02 1000.39 999.64 998.89 997.93 997.32 997.12 997.00 996.70 996.31 995.80 995.22 994.71 994.55 994.61 994.72 996.95 999.15 999.19 1000.07
1016.97 1016.31 1015.63 1014.94 1014.15 1013.46 1012.77 1012.25 1011.66 1011.17 1010.54 1010.32 1010.25 1010.30 1008.81 1005.31 1002.14 1002.89 1003.35 1004.04 1003.31 1003.64 1002.74 1001.82 1001.24 1000.78 1000.24 999.70 999.16 998.39 997.84 997.32 997.02 996.68 996.24 995.80 995.22 994.81 994.40 994.20 994.25 995.20 996.71 997.84 999.08
1016.87 1016.11 1015.34 1014.49 1013.74 1012.89 1012.07 1011.45 1011.03 1010.61 1009.96 1009.84 1009.91 1009.51 1006.83 1003.42 1001.87 1001.99 1002.42 1002.96 1002.90 1002.64 1002.10 1001.40 1001.10 1000.82 1000.33 999.87 999.54 998.86 998.11 997.30 996.75 996.17 995.59 995.14 994.65 994.42 994.26 994.00 993.82 994.57 995.59 996.57 997.96
1016.86 1016.12 1015.37 1014.54 1013.64 1012.61 1011.84 1011.10 1010.38 1009.98 1009.50 1009.35 1009.52 1008.58 1004.49 1002.13 1001.98 1001.91 1002.02 1001.80 1002.18 1001.96 1001.73 1001.31 1000.83 1000.75 1000.61 1000.29 999.98 999.56 998.76 997.40 996.78 995.90 994.99 994.41 993.72 993.69 993.52 993.46 993.55 994.43 994.99 995.62 996.78
1016.80 1016.07 1015.31 1014.35 1013.25 1012.22 1011.39 1010.51 1009.77 1009.25 1009.13 1009.23 1008.92 1006.92 1002.78 1002.56 1002.00 1001.45 1001.68 1001.49 1001.29 1001.55 1001.60 1001.61 1001.55 1001.27 1001.03 1000.60 999.99 999.31 998.05 997.11 996.02 995.17 994.36 993.97 993.16 992.77 992.80 992.87 993.26 993.99 994.06 994.79 995.40
1016.62 1015.89 1015.13 1014.10 1012.82 1011.75 1010.69 1008.99 1008.45 1008.70 1008.61 1008.07 1006.83 1005.36 1002.52 1001.28 1001.28 1001.39 1001.28 1001.39 1001.24 1001.15 1001.09 1001.41 1001.50 1001.19 1000.89 1000.43 999.29 998.50 997.39 996.36 995.40 994.79 994.05 993.53 993.09 992.69 992.89 993.01 992.76 993.04 993.46 993.99 994.51
1016.58 1015.80 1014.90 1013.88 1012.59 1011.58 1010.83 1008.06 1008.15 1007.83 1006.56 1004.85 1003.66 1002.43 1001.40 1001.30 1001.25 1001.23 1001.22 1001.32 1001.25 1001.11 1000.63 1000.54 1000.65 1000.08 999.76 999.31 998.70 998.17 997.46 996.55 995.94 995.48 994.93 994.18 993.28 992.87 992.55 992.50 992.56 992.61 992.84 993.23 993.69
1016.57 1015.77 1014.82 1013.69 1012.51 1011.33 1010.95 1008.39 1008.46 1008.10 1005.91 1003.47 1002.53 1001.96 1001.36 1001.34 1000.61 1000.40 1000.88 1000.98 1000.72 1000.56 1000.19 1000.09 999.20 998.78 998.36 998.03 997.89 997.65 997.12 996.36 995.67 995.33 995.05 994.55 993.86 993.46 992.93 992.62 992.58 992.57 992.54 992.69 993.13
1016.65 1015.80 1014.84 1013.56 1012.11 1010.67 1008.84 1008.61 1008.00 1007.27 1005.70 1002.12 1001.49 1000.78 1000.50 1000.95 1000.05 999.56 1000.36 1000.04 999.85 999.56 999.13 998.57 997.88 997.39 997.14 997.13 997.14 996.86 996.52 996.06 995.64 995.42 995.14 994.89 993.71 993.50 993.06 992.72 992.55 992.38 992.24 992.25 992.75
1016.64 1015.97 1014.96 1013.41 1012.01 1009.62 1008.15 1008.01 1007.47 1007.25 1004.86 1001.19 1000.79 1000.24 1000.45 1000.28 999.71 999.64 999.83 1000.08 999.65 999.04 998.47 998.03 997.38 996.97 997.01 997.04 997.04 996.33 996.01 995.96 995.70 995.49 994.82 995.00 993.23 993.03 992.92 992.46 992.18 991.87 991.63 991.44 991.61
1016.46 1015.76 1014.97 1014.69 1012.72 1009.26 1008.60 1007.89 1007.65 1006.95 1003.30 1000.93 1000.02 1000.25 999.84 999.91 999.31 999.33 999.95 999.97 999.55 998.97 998.54 997.67 997.13 996.87 996.71 996.71 996.73 996.47 996.39 996.28 996.18 995.83 995.38 994.83 994.20 993.29 993.43 992.93 992.55 992.33 991.50 990.65 990.80
1016.02 1015.51 1015.07 1012.54 1011.89 1009.22 1008.24 1007.86 1007.27 1005.64 1001.62 1000.29 999.74 999.56 999.51 999.24 998.99 999.24 999.35 999.92 999.40 999.10 998.47 997.74 997.18 996.70 996.33 996.52 996.90 996.74 996.58 996.45 995.99 995.31 994.72 993.91 994.59 994.50 994.69 994.25 994.13 993.90 992.44 991.68 990.61
1015.69 1014.82 1015.22 1013.45 1009.65 1008.72 1008.33 1007.30 1005.58 1002.89 1000.68 999.72 999.35 999.33 998.89 998.57 998.28 998.58 998.90 998.68 998.62 998.80 997.86 997.04 995.97 995.44 996.11 996.45 996.42 996.34 996.20 995.68 995.22 994.50 993.90 994.13 994.41 994.21 994.24 994.32 994.73 994.47 993.63 992.59 991.00
1015.45 1013.93 1012.05 1011.20 1009.75 1009.16 1008.26 1006.77 1004.24 1000.92 1000.11 1000.05 1000.25 999.67 999.24 998.76 998.44 998.56 998.84 998.53 998.25 998.97 998.61 997.42 996.23 996.14 996.18 996.30 996.23 996.32 996.29 996.10 995.51 995.15 994.74 994.66 995.17 994.64 994.44 994.46 994.40 994.46 994.83 994.29 991.56
1015.15 1011.52 1010.26 1008.99 1009.32 1009.12 1007.89 1005.40 1002.41 1001.23 1001.10 1000.91 1000.64 999.67 998.83 998.79 999.62 998.89 998.80 998.39 998.28 999.20 999.74 999.12 997.97 997.28 996.79 996.19 995.97 995.84 995.84 995.61 995.58 995.87 995.26 995.15 995.67 995.21 994.91 994.95 995.76 995.42 995.76 997.24 996.01
1015.55 1011.79 1008.41 1007.57 1008.44 1008.46 1007.22 1004.63 1002.65 1001.76 1002.02 1001.83 1001.06 1000.18 999.69 998.89 999.26 999.03 998.64 998.53 999.00 999.67 1000.19 1000.12 999.27 998.39 997.22 996.50 995.77 995.67 995.94 995.91 995.95 996.28 996.13 995.82 996.58 995.45 996.31 996.92 997.35 997.96 998.47 998.72 997.95
1015.00 1010.31 1007.44 1007.49 1008.02 1007.65 1005.82 1003.73 1002.26 1001.96 1002.71 1002.30 1001.53 1000.98 1000.67 1000.20 1000.04 999.82 999.35 999.03 999.59 1000.18 1000.92 1000.74 1000.05 998.96 997.98 996.84 996.01 996.04 996.16 996.55 997.50 998.58 998.30 997.62 997.57 998.44 998.43 999.83 1001.45 1002.74 1003.02 1002.83 999.39
1013.44 1009.55 1007.21 1007.42 1007.26 1005.93 1004.65 1003.14 1003.34 1002.42 1002.54 1002.80 1002.36 1002.27 1001.65 1001.17 1000.85 1000.56 999.91 999.65 1000.58 1001.15 1001.35 1001.29 1000.97 1000.04 999.13 998.05 997.28 996.94 997.79 998.23 998.85 999.67 999.45 1000.49 998.87 999.14 998.50 1000.71 1003.06 1004.11 1004.39 1005.70 1004.87
1013.14 1009.06 1006.66 1007.16 1006.26 1004.63 1003.44 1002.64 1002.89 1002.92 1002.55 1002.47 1002.19 1002.13 1002.10 1002.06 1001.93 1001.32 1000.73 1000.40 1000.82 1001.37 1001.88 1002.39 1002.01 1001.23 999.65 998.02 997.79 998.35 998.03 998.85 999.58 999.80 999.74 1001.31 999.26 999.65 999.74 1001.07 1003.21 1002.61 1004.53 1004.59 1002.77
1013.66 1008.82 1006.21 1006.35 1006.27 1005.66 1004.67 1003.55 1002.68 1002.75 1003.11 1002.95 1002.65 1002.65 1002.42 1002.35 1002.24 1001.82 1001.36 1001.13 1001.26 1001.55 1002.52 1002.87 1002.62 1002.26 1001.03 999.84 999.08 998.82 998.32 998.12 998.69 998.84 999.10 999.66 999.97 1000.41 1001.01 1001.32 1003.63 1003.45 1002.19 1001.96 1002.37
1013.47 1009.32 1007.65 1006.50 1005.37 1005.52 1004.83 1004.30 1003.45 1002.79 1002.65 1003.18 1002.92 1002.96 1002.79 1002.53 1002.17 1001.89 1001.76 1001.25 1001.09 1002.05 1002.20 1002.67 1002.32 1002.01 1001.30 1000.53 999.93 999.23 998.52 997.96 997.64 997.96 998.41 998.88 1000.01 1001.99 1002.22 1002.16 1003.38 1003.81 1004.12 1002.51 1001.96
1013.37 1010.70 1009.40 1008.40 1007.28 1006.56 1005.79 1005.17 1004.48 1003.72 1003.20 1002.58 1002.82 1002.94 1002.70 1002.43 1002.77 1002.73 1002.49 1002.24 1002.25 1002.37 1002.70 1002.88 1002.50 1002.47 1001.77 1001.26 1000.27 999.16 998.33 997.96 997.90 997.80 998.01 999.44 1001.55 1003.87 1002.95 1002.92 1003.37 1002.16 1003.43 1002.54 1002.51
1012.79 1011.60 1010.99 1009.43 1007.94 1006.55 1005.43 1004.78 1004.13 1003.81 1003.61 1003.25 1002.91 1002.97 1002.79 1003.00 1003.63 1003.74 1003.50 1003.36 1003.16 1002.93 1002.70 1002.75 1002.71 1002.72 1001.84 1001.45 1000.34 999.26 998.52 998.15 998.55 999.29 1000.14 1001.12 1002.56 1002.82 1004.10 1003.06 1002.99 1002.87 1002.84 1002.65 1002.06
Thickness
5778 5781 5784 5787 5790 5793 5796 5800 5804 5808 5811 5813 5815 5818 5821 5823 5827 5833 5841 5866 5867 5864 5862 5862 5860 5864 5872 5859 5869 5871 5830 5758 5768 5807 5814 5892 5897 5913 5913 5887 5889 5886 5876 5871 5868
5776 5779 5783 5786 5790 5792 5795 5800 5804 5808 5810 5813 5816 5819 5820 5822 5833 5843 5872 5874 5871 5866 5857 5854 5849 5859 5852 5859 5867 5855 5840 5791 5818 5791 5780 5877 5897 5901 5901 5889 5877 5876 5882 5876 5872
5774 5777 5781 5785 5789 5792 5797 5801 5805 5809 5813 5816 5819 5821 5823 5824 5836 5864 5873 5871 5869 5867 5868 5871 5869 5860 5845 5860 5864 5864 5848 5874 5841 5818 5873 5891 5893 5907 5893 5885 5872 5814 5850 5865 5862
5772 5776 5781 5785 5789 5793 5798 5803 5808 5812 5815 5818 5820 5823 5824 5831 5823 5870 5870 5869 5867 5869 5863 5864 5859 5847 5841 5839 5867 5851 5870 5873 5879 5886 5880 5881 5897 5890 5891 5896 5896 5866 5836 5870 5860
5771 5775 5780 5785 5791 5796 5802 5807 5811 5816 5819 5821 5822 5823 5830 5833 5849 5873 5869 5867 5866 5863 5857 5857 5848 5847 5834 5849 5858 5855 5868 5877 5881 5881 5882 5887 5879 5883 5888 5907 5920 5883 5861 5874 5865
5770 5776 5782 5788 5794 5800 5806 5810 5815 5818 5823 5824 5823 5822 5831 5824 5888 5880 5878 5868 5869 5860 5859 5863 5854 5860 5847 5847 5846 5860 5862 5866 5871 5869 5874 5867 5873 5882 5892 5912 5913 5904 5884 5880 5872
5770 5776 5784 5791 5798 5805 5811 5816 5819 5822 5825 5825 5824 5827 5835 5846 5887 5887 5881 5870 5872 5867 5856 5868 5868 5852 5853 5840 5857 5854 5841 5855 5861 5868 5866 5878 5860 5864 5893 5907 5907 5897 5895 5885 5878
5769 5775 5783 5790 5798 5806 5812 5817 5822 5824 5827 5826 5824 5830 5839 5882 5885 5879 5879 5874 5875 5875 5868 5872 5872 5855 5844 5852 5841 5827 5832 5817 5850 5862 5873 5876 5840 5877 5900 5900 5898 5888 5885 5886 5883
5768 5775 5781 5790 5799 5807 5813 5820 5825 5828 5827 5825 5827 5832 5844 5876 5863 5877 5877 5862 5870 5868 5867 5865 5854 5836 5835 5815 5809 5820 5803 5816 5834 5867 5870 5870 5856 5889 5904 5899 5891 5884 5893 5887 5887
5768 5774 5780 5789 5800 5808 5816 5830 5832 5829 5829 5832 5838 5827 5852 5851 5865 5869 5876 5868 5855 5854 5848 5839 5830 5815 5815 5805 5780 5799 5810 5826 5828 5856 5868 5863 5860 5883 5889 5888 5891 5894 5893 5891 5890
5766 5772 5779 5788 5798 5806 5812 5832 5832 5826 5833 5836 5841 5843 5853 5864 5871 5858 5865 5854 5850 5838 5817 5831 5808 5797 5809 5820 5823 5819 5813 5812 5830 5848 5840 5838 5849 5865 5883 5886 5883 5888 5891 5889 5891
5762 5769 5776 5785 5795 5804 5806 5820 5811 5815 5809 5846 5850 5848 5858 5858 5839 5852 5864 5833 5829 5810 5825 5814 5803 5825 5834 5833 5823 5817 5807 5810 5828 5840 5833 5831 5830 5850 5865 5870 5875 5877 5880 5884 5886
5757 5764 5772 5783 5794 5806 5817 5809 5821 5823 5802 5839 5848 5847 5849 5850 5837 5844 5850 5841 5825 5817 5820 5811 5825 5842 5834 5826 5814 5816 5807 5809 5809 5825 5829 5819 5813 5827 5849 5861 5869 5874 5880 5882 5878
5753 5759 5767 5780 5791 5807 5808 5815 5819 5817 5786 5824 5829 5841 5845 5845 5828 5855 5855 5835 5822 5812 5821 5819 5837 5828 5820 5812 5814 5798 5828 5818 5811 5802 5783 5821 5781 5817 5834 5845 5857 5865 5873 5877 5883
5749 5755 5761 5763 5777 5797 5801 5811 5811 5803 5765 5817 5829 5856 5848 5827 5834 5833 5852 5831 5807 5811 5816 5809 5818 5814 5806 5810 5819 5802 5820 5809 5804 5793 5791 5795 5782 5804 5822 5818 5829 5831 5857 5881 5887
5746 5749 5753 5772 5776 5794 5802 5804 5799 5768 5763 5805 5826 5820 5817 5825 5827 5832 5826 5834 5830 5811 5816 5814 5835 5824 5815 5821 5816 5816 5803 5799 5800 5797 5770 5798 5774 5774 5784 5790 5795 5816 5841 5857 5886
5742 5749 5745 5756 5781 5793 5795 5789 5765 5765 5815 5802 5808 5816 5815 5812 5815 5813 5807 5803 5792 5775 5788 5810 5820 5839 5827 5800 5813 5805 5788 5762 5764 5775 5775 5807 5778 5784 5794 5802 5798 5808 5826 5847 5880
5738 5750 5763 5768 5780 5784 5782 5766 5745 5802 5801 5815 5803 5806 5794 5809 5808 5808 5797 5791 5807 5788 5781 5778 5783 5811 5821 5802 5788 5790 5787 5760 5734 5750 5764 5797 5752 5775 5804 5805 5813 5819 5821 5837 5859
5734 5763 5767 5780 5777 5776 5763 5750 5771 5788 5796 5789 5791 5785 5794 5799 5791 5796 5790 5791 5800 5790 5759 5759 5768 5806 5808 5816 5809 5791 5778 5808 5778 5782 5770 5777 5776 5797 5803 5803 5801 5818 5818 5796 5807
5720 5745 5769 5784 5776 5766 5750 5746 5772 5794 5787 5783 5765 5784 5771 5791 5778 5784 5784 5798 5782 5786 5786 5766 5744 5784 5798 5808 5813 5800 5807 5770 5781 5742 5737 5768 5747 5774 5776 5780 5791 5786 5784 5780 5782
5717 5742 5771 5777 5769 5750 5739 5761 5779 5791 5781 5769 5768 5768 5771 5770 5773 5770 5775 5791 5782 5772 5774 5765 5756 5761 5781 5781 5785 5786 5779 5778 5763 5747 5726 5735 5752 5758 5758 5760 5735 5722 5727 5733 5762
5718 5721 5766 5767 5735 5750 5746 5767 5750 5773 5776 5767 5768 5760 5758 5763 5757 5759 5763 5773 5774 5766 5746 5760 5747 5731 5748 5782 5793 5785 5757 5756 5728 5716 5740 5717 5734 5761 5767 5757 5734 5719 5716 5699 5723
5703 5729 5759 5754 5721 5742 5761 5765 5763 5759 5760 5758 5756 5762 5762 5749 5735 5750 5757 5776 5770 5757 5739 5744 5726 5708 5730 5766 5773 5751 5759 5750 5740 5737 5723 5694 5736 5764 5761 5750 5732 5749 5720 5722 5745
5692 5712 5739 5742 5738 5728 5729 5738 5744 5760 5750 5752 5749 5753 5746 5739 5747 5737 5744 5758 5762 5754 5740 5740 5722 5709 5704 5725 5744 5731 5747 5759 5749 5730 5734 5730 5740 5738 5731 5741 5725 5731 5748 5750 5744
5686 5703 5718 5707 5725 5724 5731 5729 5728 5732 5745 5743 5735 5736 5731 5721 5729 5730 5739 5746 5755 5732 5740 5730 5708 5720 5727 5732 5733 5734 5738 5750 5753 5753 5738 5749 5740 5712 5719 5720 5707 5710 5717 5727 5741
5667 5682 5694 5696 5705 5704 5703 5706 5709 5721 5728 5726 5720 5728 5730 5720 5719 5711 5724 5725 5720 5729 5720 5723 5702 5708 5706 5719 5724 5724 5741 5747 5752 5760 5760 5750 5705 5693 5710 5719 5712 5723 5698 5714 5725
5669 5676 5671 5675 5687 5695 5702 5706 5711 5718 5722 5726 5723 5718 5714 5717 5714 5721 5723 5720 5717 5710 5708 5706 5701 5693 5687 5710 5714 5706 5730 5741 5739 5738 5724 5712 5702 5703 5703 5720 5719 5724 5717 5718 5731